FDX1959 KIAH-KSEA

Flight info

Callsign FDX1959
Flight time N/A
Altitude 30000
Route STYCK8 DOLEY FUZ PNH TBE EKR PIH PDT CHINS5
Aircraft B77L/H-SDE1E2E3FGHIJ2J3J4J5M1RWXY/LB1D1

Departure

Time 2026-05-04 02:22
Airport George Bush Intercontinental Airport (KIAH)

Arrival

Time N/A
Airport Seattle–Tacoma International Airport (KSEA)
Time Latitude Longitude Altitude Speed Heading
2026-05-04 01:38 29.99451 -95.31105 111 ft 0 kts 360°
2026-05-04 01:57 29.99444 -95.31105 109 ft 4 kts 360°
2026-05-04 01:57 29.99420 -95.31105 110 ft 1 kts 360°
2026-05-04 01:57 29.99396 -95.31102 107 ft 4 kts 336°
2026-05-04 01:57 29.99376 -95.31085 108 ft 4 kts 298°
2026-05-04 01:58 29.99370 -95.31058 107 ft 4 kts 270°
2026-05-04 01:58 29.99370 -95.31029 107 ft 2 kts 270°
2026-05-04 01:58 29.99370 -95.31027 107 ft 2 kts 270°
2026-05-04 02:04 29.99370 -95.31032 103 ft 1 kts 270°
2026-05-04 02:04 29.99370 -95.31041 103 ft 2 kts 270°
2026-05-04 02:05 29.99370 -95.31065 102 ft 4 kts 270°
2026-05-04 02:05 29.99370 -95.31094 109 ft 4 kts 270°
2026-05-04 02:05 29.99370 -95.31124 109 ft 4 kts 270°
2026-05-04 02:05 29.99370 -95.31153 109 ft 2 kts 270°
2026-05-04 02:07 29.99370 -95.31178 109 ft 5 kts 270°
2026-05-04 02:07 29.99370 -95.31218 109 ft 5 kts 270°
2026-05-04 02:08 29.99365 -95.31262 109 ft 7 kts 247°
2026-05-04 02:08 29.99307 -95.31292 109 ft 10 kts 182°
2026-05-04 02:08 29.99237 -95.31294 110 ft 10 kts 180°
2026-05-04 02:08 29.99167 -95.31294 110 ft 10 kts 180°
2026-05-04 02:09 29.99102 -95.31303 110 ft 9 kts 209°
2026-05-04 02:09 29.99082 -95.31371 111 ft 9 kts 266°
2026-05-04 02:09 29.99081 -95.31446 109 ft 9 kts 269°
2026-05-04 02:09 29.99081 -95.31521 110 ft 9 kts 270°
2026-05-04 02:10 29.99081 -95.31595 109 ft 9 kts 270°
2026-05-04 02:10 29.99081 -95.31670 109 ft 9 kts 270°
2026-05-04 02:10 29.99081 -95.31745 109 ft 9 kts 270°
2026-05-04 02:10 29.99081 -95.31820 109 ft 9 kts 269°
2026-05-04 02:11 29.99080 -95.31894 110 ft 9 kts 269°
2026-05-04 02:11 29.99080 -95.31969 110 ft 9 kts 270°
2026-05-04 02:11 29.99080 -95.32044 110 ft 9 kts 270°
2026-05-04 02:11 29.99080 -95.32118 110 ft 9 kts 270°
2026-05-04 02:12 29.99080 -95.32193 110 ft 9 kts 270°
2026-05-04 02:12 29.99080 -95.32268 111 ft 9 kts 270°
2026-05-04 02:12 29.99080 -95.32344 110 ft 10 kts 270°
2026-05-04 02:12 29.99081 -95.32427 110 ft 11 kts 270°
2026-05-04 02:13 29.99086 -95.32524 109 ft 13 kts 277°
2026-05-04 02:13 29.99090 -95.32629 108 ft 13 kts 270°
2026-05-04 02:13 29.99090 -95.32737 108 ft 13 kts 270°
2026-05-04 02:13 29.99090 -95.32843 109 ft 13 kts 270°
2026-05-04 02:14 29.99091 -95.32949 109 ft 13 kts 270°
2026-05-04 02:14 29.99092 -95.33057 109 ft 13 kts 270°
2026-05-04 02:14 29.99092 -95.33164 109 ft 13 kts 269°
2026-05-04 02:14 29.99091 -95.33270 109 ft 13 kts 270°
2026-05-04 02:15 29.99091 -95.33377 109 ft 13 kts 269°
2026-05-04 02:15 29.99090 -95.33485 108 ft 13 kts 270°
2026-05-04 02:15 29.99090 -95.33591 108 ft 13 kts 270°
2026-05-04 02:15 29.99090 -95.33698 108 ft 13 kts 270°
2026-05-04 02:16 29.99089 -95.33804 108 ft 13 kts 269°
2026-05-04 02:16 29.99089 -95.33911 108 ft 13 kts 270°
2026-05-04 02:16 29.99088 -95.34019 108 ft 13 kts 269°
2026-05-04 02:16 29.99088 -95.34126 109 ft 13 kts 269°
2026-05-04 02:17 29.99087 -95.34232 109 ft 13 kts 269°
2026-05-04 02:17 29.99086 -95.34339 109 ft 13 kts 269°
2026-05-04 02:17 29.99085 -95.34445 109 ft 13 kts 270°
2026-05-04 02:17 29.99085 -95.34551 109 ft 13 kts 270°
2026-05-04 02:18 29.99085 -95.34657 109 ft 13 kts 270°
2026-05-04 02:18 29.99085 -95.34763 109 ft 13 kts 270°
2026-05-04 02:18 29.99085 -95.34868 109 ft 13 kts 270°
2026-05-04 02:18 29.99089 -95.34974 108 ft 13 kts 273°
2026-05-04 02:19 29.99091 -95.35080 109 ft 13 kts 270°
2026-05-04 02:19 29.99091 -95.35187 109 ft 13 kts 270°
2026-05-04 02:19 29.99091 -95.35292 109 ft 13 kts 269°
2026-05-04 02:19 29.99091 -95.35397 109 ft 13 kts 269°
2026-05-04 02:20 29.99063 -95.35480 109 ft 11 kts 208°
2026-05-04 02:20 29.98987 -95.35485 108 ft 11 kts 179°
2026-05-04 02:20 29.98913 -95.35504 110 ft 11 kts 218°
2026-05-04 02:20 29.98873 -95.35578 108 ft 11 kts 242°
2026-05-04 02:21 29.98837 -95.35657 110 ft 11 kts 243°
2026-05-04 02:21 29.98799 -95.35734 110 ft 11 kts 231°
2026-05-04 02:21 29.98729 -95.35749 111 ft 11 kts 159°
2026-05-04 02:21 29.98604 -95.35674 109 ft 42 kts 152°
2026-05-04 02:22 29.98146 -95.35394 110 ft 105 kts 152°
2026-05-04 02:22 29.97352 -95.34909 110 ft 154 kts 153°
2026-05-04 02:22 29.96295 -95.34275 227 ft 178 kts 152°
2026-05-04 02:22 29.95213 -95.33624 817 ft 169 kts 152°
2026-05-04 02:23 29.94348 -95.32796 1332 ft 168 kts 125°
2026-05-04 02:23 29.94005 -95.31441 1511 ft 188 kts 89°
2026-05-04 02:23 29.94495 -95.30019 1864 ft 199 kts 49°
2026-05-04 02:23 29.95695 -95.29215 2139 ft 210 kts 13°
2026-05-04 02:24 29.97125 -95.28998 2661 ft 205 kts
2026-05-04 02:24 29.98568 -95.29034 3015 ft 213 kts 359°
2026-05-04 02:24 30.00092 -95.29060 3349 ft 225 kts 359°
2026-05-04 02:24 30.01703 -95.29123 3702 ft 235 kts 353°
2026-05-04 02:25 30.03344 -95.29593 3952 ft 253 kts 337°
2026-05-04 02:25 30.04925 -95.30574 3973 ft 267 kts 324°
2026-05-04 02:25 30.06349 -95.31996 4416 ft 269 kts 315°
2026-05-04 02:25 30.07694 -95.33457 5335 ft 262 kts 318°
2026-05-04 02:26 30.09080 -95.34813 5969 ft 267 kts 320°
2026-05-04 02:26 30.10550 -95.36163 6578 ft 272 kts 321°
2026-05-04 02:26 30.12057 -95.37492 7192 ft 275 kts 322°
2026-05-04 02:26 30.13602 -95.38822 7837 ft 278 kts 322°
2026-05-04 02:27 30.15169 -95.40153 8457 ft 281 kts 323°
2026-05-04 02:27 30.16767 -95.41497 9088 ft 284 kts 323°
2026-05-04 02:27 30.18354 -95.42827 9731 ft 287 kts 323°
2026-05-04 02:27 30.19983 -95.44189 10291 ft 292 kts 323°
2026-05-04 02:28 30.21687 -95.45612 10486 ft 312 kts 323°
2026-05-04 02:28 30.23514 -95.47138 10654 ft 333 kts 323°
2026-05-04 02:28 30.25464 -95.48766 10811 ft 355 kts 323°
2026-05-04 02:28 30.27521 -95.50423 11147 ft 370 kts 327°
2026-05-04 02:29 30.29814 -95.51861 11714 ft 379 kts 333°
2026-05-04 02:29 30.32220 -95.53193 12416 ft 384 kts 333°
2026-05-04 02:29 30.34611 -95.54519 13259 ft 385 kts 333°
2026-05-04 02:29 30.37041 -95.55875 14055 ft 388 kts 332°
2026-05-04 02:30 30.39490 -95.57251 14757 ft 391 kts 332°
2026-05-04 02:30 30.41921 -95.58622 15503 ft 393 kts 332°
2026-05-04 02:30 30.44389 -95.60017 16265 ft 394 kts 332°
2026-05-04 02:30 30.46867 -95.61421 17003 ft 396 kts 331°
2026-05-04 02:31 30.48511 -95.62352 17483 ft 397 kts 331°
2026-05-04 02:31 30.51820 -95.64229 18338 ft 401 kts 331°
2026-05-04 02:31 30.54341 -95.65651 18934 ft 403 kts 332°
2026-05-04 02:31 30.56036 -95.66577 19330 ft 405 kts 332°
2026-05-04 02:32 30.58608 -95.67949 19927 ft 407 kts 332°
2026-05-04 02:32 30.61205 -95.69323 20531 ft 409 kts 332°
2026-05-04 02:32 30.63778 -95.70685 21164 ft 411 kts 332°
2026-05-04 02:32 30.66397 -95.72074 21730 ft 414 kts 331°
2026-05-04 02:33 30.69037 -95.73480 22297 ft 416 kts 331°
2026-05-04 02:33 30.71651 -95.74877 22844 ft 419 kts 331°
2026-05-04 02:33 30.74309 -95.76299 23400 ft 421 kts 331°
2026-05-04 02:33 30.76992 -95.77737 23903 ft 424 kts 330°
2026-05-04 02:34 30.79651 -95.79164 24373 ft 425 kts 330°
2026-05-04 02:34 30.82348 -95.80610 24869 ft 426 kts 330°
2026-05-04 02:34 30.85051 -95.82061 25361 ft 429 kts 331°
2026-05-04 02:34 30.87748 -95.83511 25751 ft 432 kts 331°
2026-05-04 02:35 30.90488 -95.84984 26182 ft 434 kts 330°
2026-05-04 02:35 30.93255 -95.86471 26674 ft 436 kts 330°
2026-05-04 02:35 30.96012 -95.87954 27145 ft 437 kts 330°
2026-05-04 02:35 30.98754 -95.89431 27611 ft 438 kts 330°
2026-05-04 02:36 31.01526 -95.90925 28040 ft 440 kts 330°
2026-05-04 02:36 31.04320 -95.92432 28459 ft 442 kts 330°
2026-05-04 02:36 31.07124 -95.93945 28862 ft 444 kts 330°
2026-05-04 02:36 31.09940 -95.95465 29257 ft 446 kts 330°
2026-05-04 02:37 31.12759 -95.96927 29675 ft 449 kts 332°
2026-05-04 02:37 31.15739 -95.98157 30023 ft 455 kts 335°
2026-05-04 02:37 31.21790 -96.00464 30106 ft 457 kts 336°
2026-05-04 02:38 31.27773 -96.02754 30101 ft 452 kts 335°
2026-05-04 02:38 31.33765 -96.05074 30098 ft 452 kts 335°
2026-05-04 02:39 31.39709 -96.07389 30128 ft 452 kts 335°
2026-05-04 02:39 31.45639 -96.09699 30086 ft 448 kts 335°
2026-05-04 02:40 31.51587 -96.12020 30102 ft 449 kts 335°
2026-05-04 02:40 31.57514 -96.14337 30114 ft 451 kts 335°
2026-05-04 02:41 31.63494 -96.16678 30099 ft 453 kts 335°
2026-05-04 02:41 31.69428 -96.18995 30106 ft 442 kts 335°
2026-05-04 02:42 31.75210 -96.21259 30107 ft 438 kts 335°
2026-05-04 02:42 31.81023 -96.23548 30105 ft 441 kts 335°
2026-05-04 02:43 31.86827 -96.25833 30099 ft 442 kts 335°
2026-05-04 02:43 31.92689 -96.28141 30131 ft 443 kts 335°
2026-05-04 02:44 31.98516 -96.30437 30101 ft 443 kts 334°
2026-05-04 02:44 32.04361 -96.32744 30101 ft 441 kts 334°
2026-05-04 02:45 32.10162 -96.35038 30100 ft 440 kts 334°
2026-05-04 02:45 32.15888 -96.37536 30092 ft 432 kts 327°
2026-05-04 02:46 32.20962 -96.41181 30098 ft 426 kts 320°
2026-05-04 02:46 32.25414 -96.45697 30096 ft 422 kts 313°
2026-05-04 02:47 32.29637 -96.50504 30082 ft 423 kts 312°
2026-05-04 02:47 32.33893 -96.55339 30082 ft 424 kts 312°
2026-05-04 02:48 32.38150 -96.60155 30074 ft 425 kts 313°
2026-05-04 02:48 32.42443 -96.65004 30076 ft 425 kts 313°
2026-05-04 02:49 32.46718 -96.69836 30072 ft 426 kts 312°
2026-05-04 02:49 32.50988 -96.74669 30064 ft 425 kts 312°
2026-05-04 02:50 32.55246 -96.79498 30058 ft 425 kts 312°
2026-05-04 02:50 32.59524 -96.84355 30046 ft 424 kts 312°
2026-05-04 02:51 32.63780 -96.89194 30056 ft 425 kts 312°
2026-05-04 02:51 32.68029 -96.94034 30070 ft 425 kts 312°
2026-05-04 02:52 32.72328 -96.98936 30089 ft 427 kts 312°
2026-05-04 02:52 32.76593 -97.03805 30089 ft 427 kts 312°
2026-05-04 02:53 32.80874 -97.08701 30057 ft 426 kts 312°
2026-05-04 02:53 32.85134 -97.13579 30060 ft 426 kts 312°
2026-05-04 02:54 32.89156 -97.18671 30051 ft 422 kts 306°
2026-05-04 02:54 32.92520 -97.24407 30050 ft 420 kts 301°
2026-05-04 02:55 32.97305 -97.33148 30051 ft 420 kts 301°
2026-05-04 02:56 33.00500 -97.38970 30043 ft 420 kts 301°
2026-05-04 02:56 33.03684 -97.44776 30038 ft 420 kts 301°
2026-05-04 02:57 33.06874 -97.50601 30041 ft 420 kts 301°
2026-05-04 02:57 33.10074 -97.56454 30048 ft 420 kts 301°
2026-05-04 02:58 33.13248 -97.62268 30056 ft 420 kts 301°
2026-05-04 02:58 33.16433 -97.68113 30063 ft 420 kts 301°
2026-05-04 02:59 33.19631 -97.73991 30078 ft 421 kts 301°
2026-05-04 02:59 33.22806 -97.79835 30077 ft 421 kts 301°
2026-05-04 03:00 33.25990 -97.85704 30074 ft 421 kts 301°
2026-05-04 03:00 33.29182 -97.91599 30059 ft 421 kts 301°
2026-05-04 03:01 33.32353 -97.97463 30047 ft 421 kts 301°
2026-05-04 03:01 33.35546 -98.03378 30035 ft 422 kts 300°
2026-05-04 03:02 33.38727 -98.09280 30027 ft 423 kts 300°
2026-05-04 03:02 33.41906 -98.15189 30035 ft 424 kts 300°
2026-05-04 03:03 33.45104 -98.21143 30004 ft 424 kts 301°
2026-05-04 03:03 33.48301 -98.27102 30002 ft 424 kts 301°
2026-05-04 03:04 33.51467 -98.33014 30000 ft 423 kts 301°
2026-05-04 03:04 33.54631 -98.38931 30000 ft 423 kts 300°
2026-05-04 03:05 33.57809 -98.44886 30001 ft 424 kts 300°
2026-05-04 03:05 33.60999 -98.50874 29991 ft 425 kts 300°
2026-05-04 03:06 33.64169 -98.56834 29977 ft 425 kts 300°
2026-05-04 03:06 33.67347 -98.62818 29996 ft 426 kts 301°
2026-05-04 03:07 33.70544 -98.68848 29986 ft 427 kts 301°
2026-05-04 03:07 33.73714 -98.74835 29974 ft 426 kts 300°
2026-05-04 03:08 33.76888 -98.80840 29995 ft 426 kts 300°
2026-05-04 03:08 33.80070 -98.86872 29980 ft 426 kts 300°
2026-05-04 03:09 33.83234 -98.92878 29967 ft 426 kts 300°
2026-05-04 03:09 33.86395 -98.98890 29963 ft 426 kts 300°
2026-05-04 03:10 33.89572 -99.04943 29970 ft 427 kts 300°
2026-05-04 03:10 33.92731 -99.10969 29935 ft 427 kts 300°
2026-05-04 03:11 33.95896 -99.17018 29950 ft 428 kts 300°
2026-05-04 03:11 33.99075 -99.23104 29936 ft 428 kts 300°
2026-05-04 03:12 34.02240 -99.29175 29941 ft 428 kts 300°
2026-05-04 03:12 34.05398 -99.35241 29939 ft 428 kts 300°
2026-05-04 03:13 34.08570 -99.41344 29932 ft 428 kts 300°
2026-05-04 03:13 34.11738 -99.47450 29942 ft 428 kts 300°
2026-05-04 03:14 34.14882 -99.53520 29932 ft 429 kts 300°
2026-05-04 03:14 34.18048 -99.59644 29927 ft 429 kts 300°
2026-05-04 03:15 34.21190 -99.65730 29935 ft 429 kts 300°
2026-05-04 03:15 34.24337 -99.71838 29932 ft 429 kts 300°
2026-05-04 03:16 34.27502 -99.77991 29927 ft 429 kts 300°
2026-05-04 03:16 34.30647 -99.84115 29915 ft 429 kts 300°
2026-05-04 03:17 34.33787 -99.90241 29960 ft 429 kts 300°
2026-05-04 03:17 34.36921 -99.96364 29949 ft 429 kts 300°
2026-05-04 03:18 34.40046 -100.02480 29952 ft 428 kts 300°
2026-05-04 03:18 34.43184 -100.08634 29963 ft 428 kts 300°
2026-05-04 03:19 34.46304 -100.14763 29914 ft 428 kts 299°
2026-05-04 03:19 34.49426 -100.20905 29899 ft 428 kts 299°
2026-05-04 03:20 34.52537 -100.27036 29909 ft 428 kts 299°
2026-05-04 03:20 34.55132 -100.32160 29909 ft 428 kts 299°
2026-05-04 03:21 34.58262 -100.38350 29916 ft 428 kts 299°
2026-05-04 03:21 34.61364 -100.44493 29903 ft 428 kts 299°
2026-05-04 03:22 34.64459 -100.50636 29902 ft 428 kts 299°
2026-05-04 03:22 34.67569 -100.56816 29901 ft 428 kts 299°
2026-05-04 03:23 34.70673 -100.62995 29888 ft 427 kts 299°
2026-05-04 03:23 34.73761 -100.69155 29895 ft 427 kts 299°
2026-05-04 03:24 34.76840 -100.75307 29897 ft 427 kts 299°
2026-05-04 03:24 34.79933 -100.81500 29893 ft 428 kts 299°
2026-05-04 03:25 34.83025 -100.87699 29888 ft 428 kts 299°
2026-05-04 03:25 34.86095 -100.93865 29888 ft 428 kts 299°
2026-05-04 03:26 34.89182 -101.00079 29887 ft 428 kts 299°
2026-05-04 03:26 34.92263 -101.06290 29888 ft 428 kts 299°
2026-05-04 03:27 34.95325 -101.12473 29886 ft 428 kts 299°
2026-05-04 03:27 34.98404 -101.18703 29909 ft 428 kts 299°
2026-05-04 03:28 35.01464 -101.24905 29888 ft 429 kts 299°
2026-05-04 03:28 35.04554 -101.31179 29870 ft 430 kts 299°
2026-05-04 03:29 35.07618 -101.37410 29883 ft 430 kts 298°
2026-05-04 03:29 35.10698 -101.43687 29874 ft 429 kts 298°
2026-05-04 03:30 35.13744 -101.49906 29896 ft 429 kts 298°
2026-05-04 03:30 35.16815 -101.56187 29961 ft 428 kts 298°
2026-05-04 03:31 35.19861 -101.62426 30011 ft 428 kts 298°
2026-05-04 03:31 35.23327 -101.68392 29978 ft 433 kts 308°
2026-05-04 03:32 35.27551 -101.73615 29983 ft 437 kts 315°
2026-05-04 03:32 35.32403 -101.78131 29978 ft 439 kts 319°
2026-05-04 03:33 35.37344 -101.82567 29940 ft 439 kts 319°
2026-05-04 03:33 35.42245 -101.87000 29917 ft 439 kts 318°
2026-05-04 03:34 35.47163 -101.91486 29888 ft 439 kts 318°
2026-05-04 03:34 35.52053 -101.95966 29864 ft 439 kts 318°
2026-05-04 03:35 35.56941 -102.00452 29882 ft 439 kts 318°
2026-05-04 03:35 35.61824 -102.04941 29892 ft 439 kts 318°
2026-05-04 03:36 35.66714 -102.09443 29918 ft 439 kts 318°
2026-05-04 03:36 35.71582 -102.13930 29921 ft 438 kts 318°
2026-05-04 03:37 35.76475 -102.18448 29927 ft 438 kts 318°
2026-05-04 03:37 35.81309 -102.22919 29851 ft 437 kts 318°
2026-05-04 03:38 35.86190 -102.27441 29878 ft 437 kts 318°
2026-05-04 03:38 35.91038 -102.31940 29908 ft 439 kts 319°
2026-05-04 03:39 35.95944 -102.36498 29926 ft 440 kts 319°
2026-05-04 03:39 36.00824 -102.41040 29930 ft 440 kts 319°
2026-05-04 03:40 36.05707 -102.45590 29954 ft 440 kts 319°
2026-05-04 03:40 36.10570 -102.50132 29963 ft 441 kts 319°
2026-05-04 03:41 36.15488 -102.54731 29938 ft 442 kts 319°
2026-05-04 03:41 36.20391 -102.59324 29909 ft 443 kts 319°
2026-05-04 03:42 36.25297 -102.63926 29882 ft 444 kts 319°
2026-05-04 03:42 36.30235 -102.68566 29854 ft 444 kts 319°
2026-05-04 03:43 36.35141 -102.73185 29834 ft 445 kts 319°
2026-05-04 03:43 36.40061 -102.77822 29815 ft 445 kts 319°
2026-05-04 03:44 36.45010 -102.82495 29820 ft 445 kts 319°
2026-05-04 03:44 36.49946 -102.87164 29818 ft 446 kts 319°
2026-05-04 03:45 36.54859 -102.91819 29826 ft 446 kts 319°
2026-05-04 03:45 36.59810 -102.96518 29819 ft 446 kts 319°
2026-05-04 03:46 36.64740 -103.01204 29815 ft 447 kts 319°
2026-05-04 03:46 36.69671 -103.05899 29811 ft 447 kts 319°
2026-05-04 03:47 36.74594 -103.10594 29809 ft 447 kts 319°
2026-05-04 03:47 36.79524 -103.15304 29804 ft 447 kts 319°
2026-05-04 03:48 36.84452 -103.20019 29809 ft 447 kts 319°
2026-05-04 03:48 36.89407 -103.24768 29803 ft 447 kts 319°
2026-05-04 03:49 36.94327 -103.29492 29805 ft 447 kts 319°
2026-05-04 03:49 36.99245 -103.34223 29792 ft 447 kts 319°
2026-05-04 03:50 37.04193 -103.38988 29796 ft 447 kts 319°
2026-05-04 03:50 37.09095 -103.43719 29789 ft 446 kts 319°
2026-05-04 03:51 37.14027 -103.48487 29783 ft 445 kts 319°
2026-05-04 03:51 37.18922 -103.53227 29799 ft 445 kts 319°
2026-05-04 03:52 37.23814 -103.57980 29785 ft 445 kts 317°
2026-05-04 03:52 37.28265 -103.63289 29788 ft 441 kts 308°
2026-05-04 03:53 37.32277 -103.69163 29783 ft 442 kts 308°
2026-05-04 03:53 37.36286 -103.74993 29784 ft 442 kts 308°
2026-05-04 03:54 37.40318 -103.80845 29786 ft 443 kts 308°
2026-05-04 03:54 37.44344 -103.86688 29773 ft 443 kts 308°
2026-05-04 03:55 37.48354 -103.92521 29781 ft 441 kts 308°
2026-05-04 03:55 37.52379 -103.98385 29780 ft 441 kts 308°
2026-05-04 03:56 37.56377 -104.04221 29777 ft 440 kts 308°
2026-05-04 03:56 37.60359 -104.10044 29775 ft 440 kts 308°
2026-05-04 03:57 37.64355 -104.15898 29775 ft 439 kts 308°
2026-05-04 03:57 37.68342 -104.21750 29767 ft 440 kts 308°
2026-05-04 03:58 37.74315 -104.30535 29788 ft 441 kts 308°
2026-05-04 03:58 37.78331 -104.36456 29813 ft 443 kts 308°
2026-05-04 03:59 37.82328 -104.42360 29801 ft 443 kts 308°
2026-05-04 03:59 37.86352 -104.48314 29786 ft 444 kts 308°
2026-05-04 04:00 37.90344 -104.54230 29811 ft 443 kts 308°
2026-05-04 04:00 37.94356 -104.60188 29798 ft 443 kts 308°
2026-05-04 04:01 37.98333 -104.66103 29849 ft 443 kts 308°
2026-05-04 04:01 38.02338 -104.72073 29835 ft 444 kts 308°
2026-05-04 04:02 38.06324 -104.78026 29841 ft 444 kts 308°
2026-05-04 04:02 38.10320 -104.84004 29826 ft 445 kts 308°
2026-05-04 04:03 38.14331 -104.90015 29817 ft 446 kts 307°
2026-05-04 04:03 38.18325 -104.96012 29854 ft 446 kts 307°
2026-05-04 04:04 38.22339 -105.02051 29843 ft 446 kts 307°
2026-05-04 04:04 38.26330 -105.08066 29870 ft 446 kts 307°
2026-05-04 04:05 38.30334 -105.14113 29870 ft 446 kts 307°
2026-05-04 04:05 38.34319 -105.20140 29863 ft 445 kts 307°